GW0435 Weather Reports


Display with metric or nautical units.
time (UTC)temp
F
wind
direction
speed
MPH
gust
MPH
rain 1hr
in
rain 24hr
in
rain mn
in
humidity
%
barometer
mb
20260504090104 51 219 0.0 2.0 0.00 0.00 0.00 61 1003.6
20260504081550 53 219 0.0 3.0 0.00 0.00 0.00 58 1004.2
20260504050025 52 219 3.0 7.0 0.00 0.00 0.00 54 1005.4
20260504044526 52 219 2.0 6.0 0.00 0.00 0.00 53 1005.5
20260504043033 52 219 3.0 7.0 0.00 0.00 0.00 53 1005.5
20260504041524 53 219 0.0 5.0 0.00 0.00 0.00 46 1005.5
20260504040025 54 219 4.0 7.0 0.00 0.00 0.00 42 1005.4
20260504034523 54 219 3.0 6.0 0.00 0.00 0.00 37 1005.4
20260504033024 55 219 4.0 8.0 0.00 0.00 0.00 35 1005.4
20260504031521 56 219 3.0 7.0 0.00 0.00 0.00 33 1005.1
20260504030021 56 219 3.0 7.0 0.00 0.00 0.00 31 1005.1
20260504024521 57 219 5.0 8.0 0.00 0.00 0.00 29 1004.9
20260504023024 58 219 5.0 10.0 0.00 0.00 0.00 28 1004.8
20260504021520 59 219 7.0 12.0 0.00 0.00 0.00 27 1004.5
20260504020019 60 219 6.0 10.0 0.00 0.00 0.00 26 1004.5
20260504014526 61 219 6.0 12.0 0.00 0.00 0.00 26 1004.3
20260504013021 62 219 7.0 13.0 0.00 0.00 0.00 25 1004.3
20260504011521 63 219 6.0 15.0 0.00 0.00 0.00 24 1004.4
20260504010016 64 219 5.0 15.0 0.00 0.00 0.00 24 1004.6
20260504004517 64 219 5.0 14.0 0.00 0.00 0.00 23 1004.7
20260504003013 64 219 9.0 16.0 0.00 0.00 0.00 23 1004.6
20260504001513 65 219 5.0 14.0 0.00 0.00 0.00 23 1004.8
20260504000012 65 219 4.0 15.0 0.00 0.00 0.00 22 1005.0
20260503234515 66 219 8.0 16.0 0.00 0.00 0.00 22 1004.9
20260503233010 66 219 7.0 14.0 0.00 0.00 0.00 21 1005.1
20260503231514 66 219 2.0 12.0 0.00 0.00 0.00 22 1005.3
20260503230008 66 219 1.0 13.0 0.00 0.00 0.00 22 1005.6
20260503224511 66 219 6.0 14.0 0.00 0.00 0.00 23 1005.7
20260503223005 67 219 4.0 16.0 0.00 0.00 0.00 21 1005.9
20260503221503 67 219 7.0 12.0 0.00 0.00 0.00 20 1006.1
20260503220002 67 219 6.0 15.0 0.00 0.00 0.00 19 1006.3
20260503214559 66 219 8.0 16.0 0.00 0.00 0.00 21 1006.5
20260503213058 66 219 5.0 14.0 0.00 0.00 0.00 20 1007.0
20260503211556 67 219 5.0 13.0 0.00 0.00 0.00 20 1007.1
20260503210053 67 219 3.0 10.0 0.00 0.00 0.00 22 1007.5
20260503204552 66 219 8.0 18.0 0.00 0.00 0.00 22 1007.7
20260503203054 65 219 5.0 15.0 0.00 0.00 0.00 22 1008.0
20260503201547 65 219 5.0 11.0 0.00 0.00 0.00 22 1008.3
20260503200045 66 219 8.0 16.0 0.00 0.00 0.00 23 1008.6
20260503194542 66 219 5.0 14.0 0.00 0.00 0.00 22 1008.8
20260503193044 63 219 4.0 14.0 0.00 0.00 0.00 24 1009.1
20260503191539 65 219 3.0 9.0 0.00 0.00 0.00 22 1009.5
20260503190034 64 219 2.0 10.0 0.00 0.00 0.00 22 1010.0
20260503184532 64 219 6.0 13.0 0.00 0.00 0.00 24 1010.3
20260503183028 62 219 3.0 9.0 0.00 0.00 0.00 23 1010.7
20260503181526 63 219 4.0 9.0 0.00 0.00 0.00 23 1011.0
20260503180031 62 219 2.0 6.0 0.00 0.00 0.00 25 1011.1
20260503174518 61 219 5.0 10.0 0.00 0.00 0.00 28 1011.4
20260503173015 60 219 4.0 9.0 0.00 0.00 0.00 30 1011.8
20260503171511 60 219 2.0 7.0 0.00 0.00 0.00 30 1012.0
20260503160115 56 219 1.0 6.0 0.00 0.00 0.00 46 1012.6